999  
ASUS42 KILM 192013  
RWRILM  
RWRILM  
REGIONAL HOURLY WEATHER ROUNDUP  
NATIONAL WEATHER SERVICE WILMINGTON NC  
400 PM EDT FRI APR 19 2019  
 
NOTE: "FAIR" INDICATES FEW OR NO CLOUDS BELOW 12,000 FEET WITH NO  
SIGNIFICANT WEATHER AND/OR S TO VISIBILITY
.  
   
..............WFO WILMINGTON COUNTY WARNING AREA............
 
 
   
.....COASTAL NC AND SC COUNTIES...
 
 
 
CITY SKY/WX TMP DP RH WIND PRES REMARKS
 
WILMINGTON PTSUNNY 78 67 68 S23G35 29.69F  
N MYRTLE BEACH FAIR 73 68 84 S20G31 29.67F  
MYRTLE BEACH CLOUDY 73 69 87 S23G29 29.66F  
   
.....INLAND NC AND SC COUNTIES....
 
 
 
CITY SKY/WX TMP DP RH WIND PRES REMARKS
 
LUMBERTON NOT AVBL  
ELIZABETHTOWN CLOUDY 76 69 79 S24G36 29.64F  
WHITEVILLE CLOUDY 77 69 75 S26G38 29.65F  
FLORENCE LGT RAIN 68 66 93 S15G25 29.60R  
DARLINGTON LGT RAIN 71 67 87 S16G26 29.58S  
KINGSTREE LGT RAIN 64 63 94 S12G21 29.61S  
HARTSVILLE LGT RAIN 66 66 100 S14 29.56F  
BENNETTSVILLE CLOUDY 70 68 94 S16G29 29.56F  
CONWAY CLOUDY 75 70 83 S17G30 29.64F HAZE  
GEORGETOWN HVY RAIN 73 68 83 S25G43 29.69R  
MARION NOT AVBL  
   
...................REST OF NORTH CAROLINA...................
 
 
   
........EASTERN NC......
 
 
 
CITY SKY/WX TMP DP RH WIND PRES REMARKS
 
CAPE HATTERAS CLOUDY 78 68 71 S21G31 29.83F  
JACKSONVILLE CLOUDY 79 69 71 S28G37 29.69F  
MOREHEAD CITY CLOUDY 76 68 76 S21G29 29.78F  
KENANSVILLE CLOUDY 77 70 78 S9G18 29.66F  
NEW BERN CLOUDY 78 69 73 S24G36 29.75F  
ELIZABETH CITY PTSUNNY 77 65 66 S25G44 29.76F  
   
........CENTRAL NC......
 
 
 
CITY SKY/WX TMP DP RH WIND PRES REMARKS
 
RALEIGH DURHAM CLOUDY 72 66 81 S17G37 29.60F  
ROCKY MOUNT HVY RAIN 69 68 96 S7 29.66F FOG  
ROANOKE RAPIDS NOT AVBL  
FAYETTEVILLE CLOUDY 77 69 76 S18G35 29.58F  
HOFFMAN RAIN 74 69 86 S18G29 29.55S  
   
........WESTERN NC......
 
 
 
CITY SKY/WX TMP DP RH WIND PRES REMARKS
 
CHARLOTTE LGT RAIN 70 62 76 S23G36 29.48F  
GREENSBORO CLOUDY 71 69 93 S17 29.52F  
HICKORY NOT AVBL  
BOONE NOT AVBL  
ASHEVILLE NOT AVBL  
   
....................REST OF SOUTH CAROLINA..................
 
 
   
........EASTERN SC......
 
 
 
CITY SKY/WX TMP DP RH WIND PRES REMARKS
 
CHARLESTON LGT RAIN 67 63 87 S22G31 29.68R  
BEAUFORT MCAS LGT RAIN 67 66 97 S9 29.62F FOG  
HILTON HEAD LGT RAIN 66 64 94 S12G25 29.65F  
   
........CENTRAL SC......
 
 
 
CITY SKY/WX TMP DP RH WIND PRES REMARKS
 
COLUMBIA LGT RAIN 68 63 84 S24G36 29.51F  
ORANGEBURG LGT RAIN 66 63 90 S17G25 29.58F  
SUMTER SHAW PTSUNNY 67 63 87 S17G25 29.56F  
   
........WESTERN SC......
 
 
 
CITY SKY/WX TMP DP RH WIND PRES REMARKS
 
GREENVILLE NOT AVBL  
ROCK HILL LGT RAIN 69 65 86 S13G25 29.48F  
ANDERSON FAIR 69 64 84 S8 29.43F  
CLEMSON NOT AVBL  
GREENWOOD LGT RAIN 67 64 90 S13G21 29.48S  
 
   
..................COASTAL AND OFFSHORE REPORTS...............
 
 
   
...............LOCAL PIERS AND NC RESERVE.............
 
 
 
STATION/POSITION TIME SKY/WX TEMP WIND PRES VSBY
 
AIR SEA DIR/SP/G  
(UTC) (F) (DEG/KT/KT) (MB) (MI)  
JOHNY MRCER PIER 1948 71 63 170/ 24/ 28 1006.1F  
NC RESRV MASNBRO NOT AVBL  
OCEAN CREST PIER NOT AVBL  
SPRINGMAID PIER NOT AVBL  
 
   
...............COASTAL AND OFFSHORE BUOYS.............
 
 
 
STATION/POSITION TIME SKY/WX TEMP WIND PRES VSBY
 
AIR SEA DIR/SP/G  
(UTC) (F) (DEG/KT/KT) (MB) (MI)  
DIMNDSHOAL 41025 NOT AVBL  
CAPE LOOKOUT 2000 72 170/ 24/ 26 1008.7F  
ONSLOW BAY 41036 NOT AVBL  
ONSLOW BAY 41064 1908 72 65 210/ 21/ 29 1008.5F  
ONSLOW BAY 41159 2000 65 N/A  
WVE H/P(F/S)= 11/ 8 SWL H/P/D(F/S/D)= 2/170/11  
 
MASNBO INL 41110 2000 64 N/A  
WVE H/P(F/S)= 8/ 8 SWL H/P/D(F/S/D)= 2/160/11  
 
WILM HARBR 41108 2000 67 N/A  
WVE H/P(F/S)= 9/ 9 SWL H/P/D(F/S/D)= 2/170/11  
 
27SE WRITB 41037 1908 73 67 210/ 21/ 29 1008.4F  
FRYING PAN 41013 1950 75 140/ 25/ 31 1007.5F  
WVE H/P(F/S)= 11/10 SWL H/P/D(F/S/D)= 7/180/10  
 
SUNST NRSH 41024 1908 71 67 190/ 23/ 31 1006.7F  
CAPRS NRSH 41029 1908 72 68 180/ 21/ 37 1004.0F  
EDISTO 41004 2000 76 72 200/ 25/ 33 1006.9  
 
   
.........OFFSHORE BUOYS BEYOND 100 NM OFFSHORE........
 
   
....IN A TRIANGLE---HAT TO BERMUDA TO BAHAMAS TO HAT..
 
 
 
 
STATION/POSITION TIME SKY/WX TEMP WIND PRES VSBY
 
AIR SEA DIR/SP/G  
(UTC) (F) (DEG/KT/KT) (MB) (MI)  
150E HAT 41001 NOT AVBL  
W BERMUDA 41048 NOT AVBL  
ATLANTIC S 41049 2000 76 80/ 19/ 23 1024.0  
E BAHAMAS 41046 1950 110/ 16/ 19 1019.4F  
WVE H/P(F/S)= 6/ 6 SWL H/P/D(F/S/D)= 3/ 8  
 
NE BAHAMAS 41047 2000 140/ 16/ 21 1019.3  
120E CANVRL41010 2000 78 77 160/ 23/ 27 1010.7  
 
END  
 
 
CLICK HERE TO GO TO PREVIOUS BULLETINS.

The Nexlab NC Page
The Nexlab SC Page Main Text Page